Location: Gwatt
(46.7204°N, 7.6223°E)
Time: 23:04:40
(UTC+00:00)

Vanguard 2 Rocket - Pass Details

Date: 28 January 2021
Orbit: 554 x 3326 km, 32.9° (Epoch: 25 February)

Event Time Altitude Azimuth Distance (km) Brightness Sun altitude
Rises 18:22:32 0° 267° (W) 5,336 12.5 -19.8°
Reaches altitude 10° 18:28:08 10° 251° (WSW) 3,717 11.1 -20.7°
Maximum altitude 18:33:12 16° 216° (SW) 2,676 9.7 -21.6°
Drops below altitude 10° 18:37:05 10° 179° (S) 2,691 9.3 -22.2°
Enters shadow 18:39:40 - 160° (SSE) 3,168 9.5 -22.7°
